sat.trackr.live / text

‹ back to catalog

STARLINK-30114

NORAD 56826 · 2023-079D

PAYLOAD ACTIVE UNKNOWN

§ Identity

Operator
Country
US
Launch date
2023-06-04
Launch site
AFETR
Launch vehicle
Mass (kg)
RCS (m²)

Purposes: comms

External: N2YO · Heavens-Above · Gunter

§ Orbital elements

Epoch: 2026-09-20T21:55:02.718624Z

Period
94.27 min
Inclination
42.9997°
Eccentricity
0.0000952
Mean motion
15.27576760 rev/d
Perigee alt
482.4 km
Apogee alt
483.7 km
Semi-major
6,861.2 km
B*
1.5185e-5
RAAN
84.4754°
Arg perigee
276.7200°
Mean anomaly
83.3544°
Rev number
18,305

§ Raw data

STARLINK-301141 56826U 23079D   26263.91322591  .00000156  00000+0  15185-4 0  99942 56826  42.9997  84.4754 0000952 276.7200  83.3544 15.27576760183051

JSON: /api/v1/satellites/56826 · /tle

For live sub-satellite position, see the globe view (requires WebGL).

§ Visibility from observer

Set your observer location to see the next 7 days of passes ≥ 10°. The values pass through the URL so the page stays shareable.

No JS? Fill the form by hand. The geolocation button needs JavaScript.